Location: Marcé
(47.5801°N, 0.3280°W)
Time: 14:23:16
(UTC+01:00)

ISS - Pass Details

Date: 23 October 2021
Orbit: 417 x 422 km, 51.6° (Epoch: 07 December)

Event Time Altitude Azimuth Distance (km) Brightness Sun altitude
Exits shadow 07:48:54 - 230° (SW) 2,224 -0.5 -7.9°
Reaches altitude 10° 07:50:42 10° 226° (SW) 1,495 -1.3 -7.6°
Maximum altitude 07:53:58 52° 149° (SSE) 528 -3.0 -7.1°
Drops below altitude 10° 07:57:15 10° 72° (ENE) 1,499 0.2 -6.5°
Sets 07:59:23 0° 67° (ENE) 2,364 1.1 -6.2°
